This is the latest recevied weather packets stored in our database for station/object K1RFS. If no packets are shown the sender has not sent any weather packets the latest 10 day(s).
| Time | Temp. | Humidity | Pressure | Rain* | Wind** | Luminosity | Snow |
|---|---|---|---|---|---|---|---|
| 1788561351 | 31.67° C | 16% | 998.1 hPa | 0 mm | - | 373 W/m² | - |
| 1788561047 | 32.22° C | 16% | 998.2 hPa | 0 mm | - | 378 W/m² | - |
| 1788560742 | 31.67° C | 16% | 998.1 hPa | 0 mm | - | 391 W/m² | - |
| 1788560437 | 31.67° C | 16% | 998.2 hPa | 0 mm | - | 395 W/m² | - |
| 1788560133 | 31.67° C | 16% | 998.2 hPa | 0 mm | - | 407 W/m² | - |
| 1788559833 | 31.67° C | 16% | 998.3 hPa | 0 mm | - | 417 W/m² | - |
| 1788559532 | 32.22° C | 16% | 998.2 hPa | 0 mm | - | 429 W/m² | - |
| 1788559228 | 31.67° C | 16% | 998.5 hPa | 0 mm | - | 439 W/m² | - |
| 1788558923 | 31.67° C | 16% | 998.5 hPa | 0 mm | - | 444 W/m² | - |
| 1788558618 | 32.22° C | 16% | 998.8 hPa | 0 mm | - | 457 W/m² | - |
| 1788558314 | 31.11° C | 16% | 998.6 hPa | 0 mm | - | 469 W/m² | - |
| 1788558009 | 31.11° C | 16% | 998.8 hPa | 0 mm | - | 470 W/m² | - |
| 1788557706 | 31.11° C | 16% | 999.1 hPa | 0 mm | - | 487 W/m² | - |
| 1788557403 | 31.67° C | 16% | 998.9 hPa | 0 mm | - | 490 W/m² | - |
| 1788557103 | 31.11° C | 16% | 998.5 hPa | 0 mm | - | 501 W/m² | - |
| 1788556798 | 31.11° C | 16% | 999.2 hPa | 0 mm | - | 503 W/m² | - |
| 1788556498 | 31.11° C | 16% | 999.1 hPa | 0 mm | - | 511 W/m² | - |
| 1788556194 | 30.56° C | 17% | 999.1 hPa | 0 mm | - | 513 W/m² | - |
| 1788555892 | 30.56° C | 16% | 999.4 hPa | 0 mm | - | 528 W/m² | - |
| 1788555588 | 30.56° C | 16% | 999.1 hPa | 0 mm | - | 528 W/m² | - |
| 1788555284 | 30.56° C | 16% | 999.2 hPa | 0 mm | - | 537 W/m² | - |
| 1788554981 | 31.11° C | 16% | 999.2 hPa | 0 mm | - | 539 W/m² | - |
| 1788554677 | 30.56° C | 16% | 999.2 hPa | 0 mm | - | 544 W/m² | - |
| 1788554373 | 31.11° C | 16% | 999.4 hPa | 0 mm | - | 548 W/m² | - |
| 1788554069 | 30.56° C | 16% | 999.4 hPa | 0 mm | - | 554 W/m² | - |
* Rain latest hour (hover to see other rain measurements)
** Current wind speed in m/s (hover to see current wind gust speed)